Regional Weather Roundup
Issued by NWS Upton, NY

Current Version | Previous Version | Text Only | Print | Product List | Glossary Off
Versions: 1 2 3 4 5 6 7 8 9 10 11 12 13 14 15 16 17 18 19 20 21 22 23 24 25 26 27 28 29 30 31 32 33 34 35 36 37 38 39 40 41 42 43 44 45 46 47 48 49 50
000 ASUS41 KOKX 302305 RWROKX REGIONAL WEATHER ROUNDUP NATIONAL WEATHER SERVICE NEW YORK NY 700 PM EDT TUE SEP 30 2014 NOTE: "FAIR" INDICATES FEW OR NO CLOUDS BELOW 12,000 FEET WITH NO SIGNIFICANT WEATHER AND/OR OBSTRUCTIONS TO VISIBILITY. NYZ071-072-176-178-NJZ106-104-010000- NEW YORK CITY METRO AREA CITY SKY/WX TMP DP RH WIND PRES REMARKS CENTRAL PARK CLOUDY 66 57 72 VRB6 29.98R LAGUARDIA APRT CLOUDY 64 57 77 NE9 29.95R KENNEDY INTL CLOUDY 66 59 78 NE8 29.95R NEWARK/LIBERTY MOCLDY 68 58 70 E6 29.94R BRNX BOT. GARD N/A 63 57 82 NE2 29.97R TETERBORO CLOUDY 66 57 72 E6 29.94R $$ NYZ177-179-078>081-010000- LONG ISLAND NEW YORK CITY SKY/WX TMP DP RH WIND PRES REMARKS FARMINGDALE CLOUDY 64 59 83 NE8 29.95R ISLIP CLOUDY 63 58 83 NE7 29.93R SHIRLEY CLOUDY 63 59 87 CALM 29.95S WESTHAMPTON CLOUDY 62 59 90 NE7 29.96S MONTAUK POINT N/A 61 58 90 NE10G17 29.98R $$ NYZ052-065-067-010000- HUDSON VALLEY CITY SKY/WX TMP DP RH WIND PRES REMARKS WHITE PLAINS MOCLDY 62 57 83 NE3 29.96R NEWBURGH NOT AVBL MONTGOMERY CLOUDY 65 57 75 E5 29.95R POUGHKEEPSIE CLOUDY 64 57 78 E6 29.95R ALBANY MOCLDY 67 55 65 SE3 29.96R $$ NJZ001-105-106-008-010-013-015-019>022-104-010000- NEW JERSEY CITY SKY/WX TMP DP RH WIND PRES REMARKS NEWARK/LIBERTY MOCLDY 68 58 70 E6 29.94R TETERBORO CLOUDY 66 57 72 E6 29.94R CALDWELL CLEAR 64 56 75 E7 29.95S MORRISTOWN MOCLDY 64 59 82 SE6 29.95 SOMERVILLE PTCLDY 65 58 78 E5 29.92R LINDEN CLOUDY 71 62 73 SE3 29.96R SUSSEX MOCLDY 69 56 62 SE6 29.94R ANDOVER N/A 65 56 72 CALM 29.94R TRENTON PTCLDY 65 58 78 E8 29.92R MILLVILLE PTCLDY 66 59 78 E8 29.91R ATLANTIC CITY CLEAR 64 60 87 E7 29.92R WRIGHTSTOWN CLOUDY 65 60 86 E7 29.91R TOMS RIVER MOCLDY 64 57 77 E5 29.94R BELMAR CLOUDY 64 57 77 E8 29.94R $$ PAZ047>061-062-071-010000- EASTERN PENNSYLVANIA CITY SKY/WX TMP DP RH WIND PRES REMARKS PHILADELPHIA MOCLDY 69 59 70 E16 29.91R ALLENTOWN MOCLDY 70 57 63 SE10 29.91R SCRANTON CLOUDY 70 54 56 CALM 29.92R $$ CTZ002-004>006-009-010-012-RIZ004-006-007-MAZ004-011-015-010000- SOUTHERN NEW ENGLAND IN CT CITY SKY/WX TMP DP RH WIND PRES REMARKS BRADLEY INTL CLOUDY 62 55 77 NE6 29.98R HARTFORD CLOUDY 62 57 83 SE7 29.98R DANBURY CLOUDY 60 56 86 E3 29.98R WTRBRY/OXFORD CLOUDY 59 54 82 E8 29.99R BRIDGEPORT CLOUDY 63 58 83 NE8 29.96R MERIDEN CLOUDY 61 56 83 NE6 29.97S NEW HAVEN CLOUDY 64 57 78 N10 29.96R CHESTER CLOUDY 59 57 94 NE6 29.98R GROTON CLOUDY 59 57 93 NE10 29.97R WILLIMANTIC CLOUDY 59 56 89 NE8 29.99R IN RI CITY SKY/WX TMP DP RH WIND PRES REMARKS PROVIDENCE CLOUDY 57 55 93 NE10 30.00F BLOCK ISLAND CLOUDY 59 54 82 NE12G22 29.96F WESTERLY CLOUDY 59 56 89 NE6 29.98R IN MA CITY SKY/WX TMP DP RH WIND PRES REMARKS BOSTON CLOUDY 56 54 93 N8 30.03R WORCESTER LGT RAIN 54 54 100 NE6 30.02S VSB 1/2 WESTFIELD CLOUDY 62 56 80 NE3 30.00R PROVINCETOWN CLOUDY 61 55 82 N10 30.00R NANTUCKET CLOUDY 62 61 96 N12 29.96R FOG $$ ANZ330-335-338-340-345-350-353-355-010000- COASTAL MARINE OBSERVATIONS STATION/POSITION TIME SKY/WX TEMP WIND PRES VSBY WAVE AIR SEA DIR/SP/G HT/PER (UTC) (F) (DEG/KT/KT) (MB) (MI) (FT/S) NY HARB ENTRANCE NOT AVBL 4S FIRE IS 2300 68 N/A 3/ 5 20S FIRE ISLAND 2300 65 67 60/ 17/ 19 1013.3 4/ 5 23SW MTP 2300 N/A 4/ 4 HUDSON CANYON 2300 67 69 50/ 19/ 23 1011.7 4/ 5 EXECUTION ROCKS 2300 65 69 80/ 12/ 14 N/A WESTERN LI SOUND 2300 65 60/ 12/ 14 N/A 1/ 3 CENTRAL LI SOUND 2300 63 69 60/ 12/ 16 N/A 1/ 2 EASTERN LI SOUND 2200 62 67 30/ 12/ 16 N/A ROBBINS REEF 2300 67 80/ 5/ 7 1012.7 $$ >>>>>>>>>>>>>>>>>>>>>>>>>>>> KEY <<<<<<<<<<<<<<<<<<<<<<<<<<< > < > SKY/WX - SKY CONDITION/PRESENT WEATHER < > TMP - TEMPERATURE IN FAHRENHEIT < > DP - DEWPOINT IN FAHRENHEIT < > RH - RELATIVE HUMIDITY IN PERCENT < > WIND - DIRECTION AND SPEED IN MPH < > PRES - MEAN SEA LEVEL PRESSURE IN INCHES OF HG < > WCI - WIND CHILL INDEX < > VSB - VISIBILITY IN MILES < > HX - HEAT INDEX < > TC - TEMPERATURE IN CELSIUS < > VRB - VARIABLE WIND DIRECTION < > < >>>>>>>>>>>>>>>>>>>>>>>>>>>> KEY <<<<<<<<<<<<<<<<<<<<<<<<<<<

USA.gov is the U.S. government's official web portal to all federal, state and local government web resources and services.